GALAXY 34 (G-34)

Last updated on Sun Apr 12 2026 00:02:56 GMT+0000 (Coordinated Universal Time)

1 54027U 22128B 26101.49512395 .00000000 00000+0 00000+0 0 9999 2 54027 0.0154 197.6414 0001664 182.1947 229.2029 1.00269610 13242
UTC large
Height (km)
Speed (km/s)
/
Latitude / Longitude
Inclination (degrees)
Orbital Period (minutes)
Azimuth
Elevation
Range (km)
Doppler Factor

Next 0 passes for location: London (51.5072 / 0.1276)

Sorry there are no passes over London.
GALAXY 34 (G-34)